Theta_e
317 318 318 318 318 317 317 318 318 318 319 319 320 319 320 321 321 317 304 308 312 330 347 335 328 320 314 317 330 339 322 316 319 321 322 331 327 335 337 329 330 334 331 335 342
318 318 317 317 317 317 317 317 317 318 318 318 319 319 320 321 315 310 318 324 332 341 321 317 316 314 307 314 321 326 320 322 328 328 326 330 329 332 329 327 328 330 337 341 342
317 317 317 317 317 317 317 317 317 317 317 317 317 320 320 319 308 304 332 333 340 339 316 313 314 311 309 311 326 328 322 326 328 330 332 330 329 335 327 324 327 328 334 338 339
317 317 317 317 317 317 317 317 317 317 316 317 317 319 320 313 291 317 342 338 340 332 313 310 310 307 308 310 329 322 325 330 332 333 332 328 333 332 330 330 334 335 336 337 336
317 317 317 317 317 317 317 317 316 316 316 316 318 319 312 302 300 310 349 338 330 322 310 307 311 314 311 316 322 321 326 331 335 334 332 333 330 330 328 336 336 335 335 335 336
317 316 316 316 316 317 316 316 315 315 315 316 318 319 305 290 304 325 327 327 322 312 308 309 313 319 317 319 321 327 329 327 333 332 332 328 329 330 332 337 333 333 332 334 334
316 316 316 315 315 316 316 315 314 315 315 316 317 316 307 298 319 324 321 316 309 308 305 311 319 321 318 313 328 331 323 327 331 330 328 330 323 324 332 332 330 331 332 333 333
317 316 315 315 315 317 317 316 316 315 315 317 317 310 298 311 314 312 314 309 307 303 308 313 318 318 316 316 313 323 323 316 328 329 330 328 316 325 332 330 326 329 330 332 331
316 316 315 315 315 316 316 315 316 317 317 319 306 304 298 319 312 311 316 309 304 302 307 317 317 310 309 301 297 309 306 315 320 329 327 324 317 326 331 331 325 327 328 329 333
317 315 315 314 314 315 314 314 315 316 320 318 314 302 307 309 311 312 312 310 304 304 306 307 305 301 297 296 292 297 307 316 317 324 325 321 320 324 328 328 326 325 325 328 333
316 315 314 314 313 313 307 308 305 303 307 299 301 304 310 312 315 311 312 308 306 305 300 304 298 295 298 300 301 302 302 314 319 326 320 320 321 322 327 328 324 323 325 328 330
316 315 315 314 313 311 305 300 305 305 299 308 307 309 312 310 305 310 311 303 302 298 302 298 295 300 303 303 303 302 309 313 319 321 321 321 320 325 327 327 326 325 323 326 330
316 315 315 314 312 306 303 304 309 307 296 300 308 306 306 307 305 305 309 306 301 299 300 296 299 304 303 301 300 298 298 314 314 318 319 318 315 321 326 329 331 328 324 328 328
316 316 314 312 304 304 303 307 308 306 289 296 298 306 307 306 302 312 313 308 302 300 300 298 304 303 300 300 299 292 303 312 315 309 303 314 303 312 319 321 326 327 323 326 328
316 315 313 310 302 302 307 307 307 300 284 303 302 309 304 303 305 306 312 306 300 300 299 297 299 299 298 300 300 298 306 314 314 309 305 307 303 309 314 314 321 325 327 323 327
315 314 311 306 304 307 310 307 302 290 288 300 302 302 297 299 302 305 306 307 306 300 299 299 303 301 300 303 302 306 312 311 308 305 297 304 304 307 310 315 321 327 329 327 326
313 311 308 311 303 308 307 303 292 286 300 297 297 299 296 296 299 301 301 298 295 290 290 298 300 302 303 297 299 299 303 296 294 295 295 304 304 305 316 320 324 326 328 328 328
310 308 307 310 307 309 305 297 288 297 295 300 299 296 293 297 300 301 298 295 298 296 292 290 291 299 301 298 295 295 299 293 290 291 294 306 299 306 320 324 327 329 330 333 331
308 304 305 307 310 306 300 289 289 294 298 298 295 292 294 298 299 300 297 295 298 295 290 290 293 302 302 302 302 296 294 298 295 292 295 300 304 315 323 324 326 326 329 330 332
303 305 304 311 312 303 296 291 294 301 300 298 291 292 290 295 295 296 297 302 300 302 297 294 291 297 303 303 303 299 301 294 291 287 288 296 297 301 315 320 322 321 324 328 333
302 303 308 311 307 301 292 291 299 304 305 296 293 293 293 294 296 295 297 302 305 303 300 296 293 295 298 295 298 299 295 294 294 293 290 292 299 314 312 320 320 323 325 327 329
302 297 309 308 298 294 293 297 301 301 301 298 298 296 295 296 295 297 297 300 306 303 296 296 292 290 294 299 300 299 297 295 291 291 295 297 301 321 321 321 322 321 324 326 329
299 299 309 307 293 290 295 300 301 296 296 298 297 298 298 295 292 298 300 308 307 301 293 294 291 289 292 294 297 293 295 294 294 296 295 295 301 321 320 320 321 321 323 324 325
301 293 297 297 296 293 295 294 292 300 298 298 298 298 295 292 295 295 298 305 305 301 315 303 291 291 287 291 293 291 293 295 294 291 294 297 308 315 317 318 319 320 321 321 322
301 296 296 290 294 292 291 293 295 293 297 298 300 300 296 291 293 295 297 298 303 306 299 296 290 292 296 295 296 293 294 297 293 295 296 303 308 313 315 317 317 319 319 318 318
301 300 302 297 294 291 291 289 292 293 293 294 297 301 302 297 296 294 295 293 295 301 297 293 291 291 293 298 297 293 296 298 305 307 306 309 309 318 318 317 316 318 318 317 317
307 306 304 298 289 289 288 291 296 295 296 300 300 298 296 298 300 298 298 297 296 296 295 294 290 291 287 294 294 290 293 293 303 309 310 305 310 316 314 315 315 316 318 314 315
Wind_Speed
13 13 12 12 12 12 12 12 13 12 12 12 12 12 12 12 13 2 7 11 9 9 11 8 3 3 2 2 4 3 2 4 11 8 9 4 6 2 3 16 5 2 12 15 18
14 14 14 13 13 12 12 12 12 12 12 12 12 12 12 12 4 8 13 11 12 12 7 9 6 6 2 4 4 4 1 6 2 2 13 6 7 5 9 12 15 18 17 20 18
15 15 14 14 13 12 12 12 12 12 12 12 12 11 12 9 4 9 8 16 15 12 5 5 6 6 2 3 3 5 2 4 4 14 11 12 5 3 14 9 20 22 23 20 18
15 14 14 14 14 14 13 13 13 12 11 11 11 11 12 1 3 2 11 20 17 8 6 6 4 6 3 4 3 3 1 0 8 15 11 9 10 7 7 3 17 23 23 19 19
15 15 15 14 13 13 13 13 13 12 11 10 10 9 4 0 11 5 8 19 12 9 8 7 6 4 4 2 4 1 3 2 2 7 11 11 8 6 16 12 16 20 20 19 15
14 15 14 14 13 12 11 11 12 11 10 9 8 4 1 3 5 3 13 9 7 7 7 6 8 6 3 2 5 8 10 1 2 8 11 6 7 7 9 10 18 21 19 17 16
15 14 13 14 14 14 12 10 10 9 8 7 4 3 0 13 6 5 8 6 6 6 7 5 2 4 2 2 6 8 5 2 4 9 4 13 4 6 10 14 21 19 18 17 16
14 13 13 12 12 14 14 12 11 7 6 4 3 1 8 5 4 1 3 3 4 2 2 6 1 0 3 4 2 7 3 4 5 7 5 1 5 14 7 13 19 18 17 16 14
14 14 13 12 13 13 12 13 10 6 4 4 2 2 10 4 4 7 7 4 7 3 3 3 5 5 1 2 4 4 4 4 8 8 7 3 6 17 7 10 16 16 16 13 14
13 13 13 12 13 11 14 9 2 1 5 5 6 2 5 1 4 6 5 5 5 7 3 4 2 3 3 4 4 3 2 2 7 6 13 2 4 17 6 11 9 11 15 13 16
15 14 12 12 12 10 8 2 2 0 2 9 6 5 4 5 3 3 6 4 3 5 5 4 5 6 8 6 4 4 2 7 5 4 4 2 9 16 7 8 17 7 10 15 16
13 15 14 13 10 7 2 3 5 3 8 13 10 7 5 3 3 3 8 5 4 4 3 6 5 8 6 7 4 5 3 4 7 8 3 5 9 12 8 9 13 6 11 14 13
13 13 13 12 11 0 3 6 3 4 0 8 6 5 5 8 5 5 10 5 4 4 4 5 4 7 4 2 5 3 4 6 6 7 4 7 1 10 7 5 5 6 9 15 17
15 12 9 17 1 1 5 2 6 5 5 7 2 6 4 4 2 4 7 6 1 8 5 4 5 3 3 3 6 1 6 8 15 7 4 4 3 4 3 4 20 12 9 15 15
16 13 9 4 4 2 5 7 3 4 4 11 3 1 2 8 4 3 5 4 6 5 7 7 4 4 5 8 7 8 8 11 14 5 6 3 3 3 5 5 8 16 8 11 17
17 13 13 2 2 8 8 7 5 6 3 7 5 6 3 2 2 2 3 5 3 1 1 7 3 5 8 5 8 3 6 12 6 4 0 8 5 4 6 12 10 9 9 8 14
17 12 4 3 5 2 5 5 6 4 5 8 5 5 3 2 3 3 5 4 4 4 5 6 5 5 6 3 1 5 8 3 4 1 6 8 4 3 6 6 17 14 12 11 14
22 13 6 6 2 3 4 7 6 2 3 5 5 5 4 5 5 7 6 3 1 3 2 2 6 7 4 10 8 7 11 7 6 4 1 4 4 1 6 9 9 9 10 8 8
22 1 3 4 9 1 6 6 5 3 4 4 5 6 7 5 5 4 4 2 4 2 1 4 6 3 5 5 10 4 5 7 7 3 5 2 3 2 3 7 9 9 7 6 3
3 3 4 7 8 6 7 3 4 5 3 2 3 4 3 7 4 5 4 3 2 2 5 4 3 2 5 2 3 9 8 4 4 5 4 1 0 4 2 8 10 8 8 6 3
2 3 2 7 3 7 3 5 5 7 4 2 2 3 2 1 4 3 1 3 1 7 3 1 3 6 1 2 6 3 2 7 6 4 7 4 3 3 5 7 9 8 7 6 5
2 3 2 2 6 2 3 4 3 4 3 3 3 3 1 1 2 3 1 3 4 2 3 1 3 1 6 4 4 2 7 6 7 3 3 5 2 4 11 9 10 9 8 8 7
1 2 3 5 1 2 3 2 2 2 3 2 2 2 2 3 4 3 3 5 6 3 3 3 3 3 9 8 8 7 5 4 7 5 4 7 3 5 7 7 7 11 8 8 8
4 3 5 5 1 4 4 1 2 5 4 4 3 3 4 3 4 2 1 3 6 2 5 6 3 5 5 6 3 4 3 2 6 5 6 3 12 7 9 10 7 7 9 9 7
3 1 2 3 4 6 5 2 3 5 4 9 6 1 3 2 3 4 5 6 6 9 3 4 3 2 3 2 2 3 4 5 4 5 8 11 20 20 15 13 9 10 9 12 11
3 3 5 1 2 5 4 4 3 3 5 5 5 7 4 4 2 1 1 2 2 7 5 3 3 1 4 10 7 5 12 6 3 8 7 18 9 7 11 10 10 11 11 14 12
3 1 4 5 3 4 2 4 1 5 3 2 2 3 5 3 4 5 4 2 2 6 4 3 3 4 2 5 3 9 10 5 3 2 23 16 8 17 14 14 13 15 14 14 11
Wind_Direction
332 331 330 329 327 323 323 324 322 324 323 325 326 325 324 322 310 174 235 219 184 231 138 126 139 200 196 201 223 126 290 167 178 168 151 234 131 42 302 126 127 131 127 135 131
328 326 324 321 319 319 317 317 317 318 319 321 323 323 323 327 274 242 236 202 205 171 132 149 169 159 169 219 209 120 240 209 145 205 153 173 129 125 129 130 103 103 114 130 134
329 325 323 320 317 315 314 313 312 314 316 317 318 320 321 326 294 245 199 188 186 174 130 167 127 152 193 227 175 144 195 347 267 219 157 159 130 74 147 131 143 141 144 146 145
328 324 320 318 316 314 313 310 309 309 312 313 315 320 317 291 217 181 156 183 175 153 140 141 129 151 199 219 147 141 308 64 313 180 178 164 135 128 147 62 143 147 150 151 156
328 326 322 317 313 310 309 308 306 306 307 309 309 321 349 28 253 301 106 157 154 146 167 154 138 155 184 234 101 158 203 142 271 208 161 149 174 140 153 237 145 147 152 159 160
329 327 324 319 314 310 309 306 303 303 301 302 305 317 142 263 257 155 130 130 148 138 166 165 167 196 264 248 206 167 169 129 303 183 162 144 142 113 161 185 156 156 157 165 164
329 328 326 323 319 314 308 299 291 292 290 286 279 238 67 237 360 111 124 150 163 150 151 213 137 103 334 297 255 154 124 128 216 163 138 119 121 129 150 154 161 162 163 166 170
326 329 327 322 315 311 305 297 292 284 273 250 230 213 247 248 278 267 169 135 139 183 42 164 133 109 207 281 300 138 57 161 153 155 169 43 161 145 167 167 167 168 163 170 169
331 328 325 321 317 310 300 298 283 260 206 161 142 144 269 313 199 203 169 172 143 123 215 151 152 200 253 119 26 45 177 197 138 212 179 107 122 170 171 154 163 168 166 171 152
329 331 326 322 319 317 313 284 189 267 149 165 264 313 263 255 218 173 174 142 136 134 178 166 93 126 51 87 187 103 113 196 144 197 211 215 170 176 178 158 188 158 165 166 154
334 330 323 321 320 331 351 106 25 335 253 197 201 234 265 294 229 166 144 125 107 116 150 189 118 188 205 172 135 106 54 100 104 125 307 51 144 175 167 174 192 162 150 161 172
335 331 324 318 314 319 304 151 220 191 304 223 241 271 284 90 316 225 112 153 142 154 107 43 207 205 172 157 132 125 121 73 112 157 218 130 155 178 163 197 194 148 158 164 159
324 336 322 305 310 38 205 228 227 310 59 302 192 200 213 143 203 224 139 149 143 150 132 159 237 168 157 132 125 137 174 169 143 138 74 83 83 183 219 135 267 196 173 169 161
317 324 327 324 234 209 261 226 244 180 54 292 283 274 163 141 283 175 171 142 183 185 155 229 224 149 128 211 135 182 191 185 147 133 164 230 201 241 197 219 189 218 174 174 167
308 312 319 349 296 227 260 292 261 64 51 333 280 140 92 141 149 254 164 75 160 152 109 244 181 180 185 212 151 220 174 176 160 110 110 248 113 175 145 211 189 198 161 168 167
310 310 327 111 195 244 300 313 67 37 31 337 350 350 37 324 30 72 129 61 139 143 5 221 232 162 210 229 174 158 93 44 55 90 143 198 153 237 190 194 183 182 157 151 157
304 292 269 281 229 99 298 34 42 96 334 342 322 352 345 272 44 116 161 150 139 84 324 328 268 230 175 246 28 118 86 28 32 341 223 170 146 222 284 229 178 186 151 167 155
313 294 219 232 259 42 48 49 65 280 285 287 313 335 65 12 42 7 113 97 232 108 120 176 325 172 180 181 182 179 154 153 175 193 267 102 230 316 326 214 207 145 155 117 159
315 200 232 259 194 98 72 55 202 224 258 302 330 50 351 347 86 69 34 74 39 89 144 176 268 283 189 172 147 183 146 193 114 349 88 204 322 156 52 72 119 106 98 96 130
314 300 255 124 153 70 67 216 198 223 276 358 49 45 58 344 51 53 31 306 338 146 167 265 273 271 276 147 58 152 164 78 16 132 123 275 248 248 165 129 102 96 97 92 65
359 11 312 133 83 53 128 227 248 241 204 206 9 53 47 75 61 51 311 273 13 324 45 190 132 283 310 126 172 59 90 57 111 117 146 139 255 227 168 118 114 103 95 101 84
9 35 344 50 58 40 147 203 304 294 86 295 100 93 112 78 64 39 215 242 12 331 28 17 140 159 251 282 263 288 163 132 119 228 58 117 226 52 114 130 126 114 97 77 68
40 264 343 64 82 213 256 283 223 306 293 15 74 145 186 147 100 195 268 269 289 352 45 328 23 32 340 2 2 49 337 98 109 94 187 121 193 133 143 144 136 138 124 107 92
94 54 330 46 62 137 129 181 53 13 56 348 31 59 77 39 25 180 272 278 325 339 106 85 63 127 148 252 259 333 304 197 116 122 149 201 142 175 179 147 115 114 108 97 95
46 302 179 327 345 78 79 48 63 16 21 24 19 28 53 81 47 12 354 344 336 2 48 99 125 167 194 275 247 240 298 180 136 167 142 172 168 185 172 152 141 130 130 111 106
78 46 1 303 290 84 14 3 55 25 34 351 66 22 52 64 343 64 333 19 340 325 356 16 181 121 11 341 346 38 19 9 90 108 50 143 122 159 141 128 140 136 127 111 102
316 345 107 309 29 71 256 165 63 122 354 40 177 92 22 81 252 243 223 252 214 145 271 45 115 79 296 281 354 22 342 322 10 284 138 158 180 153 146 151 155 145 135 118 107